Date;H [cm]
01.01.2007;78
02.01.2007;83
03.01.2007;89
04.01.2007;88
05.01.2007;87
06.01.2007;87
07.01.2007;87
08.01.2007;88
09.01.2007;90
10.01.2007;91
11.01.2007;92
12.01.2007;103
13.01.2007;100
14.01.2007;97
15.01.2007;97
16.01.2007;98
17.01.2007;98
18.01.2007;97
19.01.2007;99
20.01.2007;97
21.01.2007;94
22.01.2007;93
23.01.2007;94
24.01.2007;96
25.01.2007;94
26.01.2007;105
27.01.2007;105
28.01.2007;104
29.01.2007;108
30.01.2007;105
31.01.2007;102
01.02.2007;88
02.02.2007;88
03.02.2007;90
04.02.2007;90
05.02.2007;90
06.02.2007;89
07.02.2007;87
08.02.2007;98
09.02.2007;108
10.02.2007;113
11.02.2007;112
12.02.2007;105
13.02.2007;96
14.02.2007;90
15.02.2007;89
16.02.2007;89
17.02.2007;89
18.02.2007;89
19.02.2007;89
20.02.2007;87
21.02.2007;85
22.02.2007;87
23.02.2007;79
24.02.2007;73
25.02.2007;73
26.02.2007;72
27.02.2007;72
28.02.2007;72
01.03.2007;72
02.03.2007;73
03.03.2007;73
04.03.2007;72
05.03.2007;72
06.03.2007;71
07.03.2007;71
08.03.2007;72
09.03.2007;75
10.03.2007;79
11.03.2007;84
12.03.2007;90
13.03.2007;93
14.03.2007;95
15.03.2007;93
16.03.2007;93
17.03.2007;93
18.03.2007;95
19.03.2007;96
20.03.2007;97
21.03.2007;98
22.03.2007;98
23.03.2007;99
24.03.2007;98
25.03.2007;98
26.03.2007;97
27.03.2007;97
28.03.2007;97
29.03.2007;96
30.03.2007;96
31.03.2007;95
01.04.2007;93
02.04.2007;93
03.04.2007;92
04.04.2007;90
05.04.2007;89
06.04.2007;88
07.04.2007;87
08.04.2007;86
09.04.2007;86
10.04.2007;85
11.04.2007;84
12.04.2007;84
13.04.2007;84
14.04.2007;84
15.04.2007;83
16.04.2007;83
17.04.2007;83
18.04.2007;82
19.04.2007;82
20.04.2007;82
21.04.2007;84
22.04.2007;83
23.04.2007;82
24.04.2007;83
25.04.2007;83
26.04.2007;82
27.04.2007;82
28.04.2007;80
29.04.2007;80
30.04.2007;80
01.05.2007;80
02.05.2007;78
03.05.2007;79
04.05.2007;81
05.05.2007;81
06.05.2007;80
07.05.2007;79
08.05.2007;82
09.05.2007;82
10.05.2007;82
11.05.2007;80
12.05.2007;77
13.05.2007;76
14.05.2007;75
15.05.2007;75
16.05.2007;76
17.05.2007;76
18.05.2007;74
19.05.2007;74
20.05.2007;73
21.05.2007;72
22.05.2007;71
23.05.2007;71
24.05.2007;70
25.05.2007;70
26.05.2007;70
27.05.2007;71
28.05.2007;72
29.05.2007;78
30.05.2007;78
31.05.2007;78
01.06.2007;77
02.06.2007;74
03.06.2007;72
04.06.2007;71
05.06.2007;71
06.06.2007;70
07.06.2007;69
08.06.2007;68
09.06.2007;68
10.06.2007;68
11.06.2007;67
12.06.2007;67
13.06.2007;66
14.06.2007;66
15.06.2007;65
16.06.2007;64
17.06.2007;64
18.06.2007;65
19.06.2007;65
20.06.2007;64
21.06.2007;63
22.06.2007;62
23.06.2007;62
24.06.2007;62
25.06.2007;62
26.06.2007;62
27.06.2007;63
28.06.2007;63
29.06.2007;63
30.06.2007;63
01.07.2007;63
02.07.2007;62
03.07.2007;62
04.07.2007;62
05.07.2007;61
06.07.2007;60
07.07.2007;59
08.07.2007;59
09.07.2007;59
10.07.2007;58
11.07.2007;58
12.07.2007;58
13.07.2007;58
14.07.2007;57
15.07.2007;57
16.07.2007;57
17.07.2007;57
18.07.2007;57
19.07.2007;56
20.07.2007;56
21.07.2007;55
22.07.2007;55
23.07.2007;54
24.07.2007;55
25.07.2007;55
26.07.2007;55
27.07.2007;55
28.07.2007;55
29.07.2007;54
30.07.2007;54
31.07.2007;54
01.08.2007;54
02.08.2007;55
03.08.2007;55
04.08.2007;55
05.08.2007;55
06.08.2007;54
07.08.2007;54
08.08.2007;54
09.08.2007;54
10.08.2007;54
11.08.2007;53
12.08.2007;53
13.08.2007;53
14.08.2007;53
15.08.2007;53
16.08.2007;52
17.08.2007;53
18.08.2007;52
19.08.2007;52
20.08.2007;52
21.08.2007;52
22.08.2007;52
23.08.2007;52
24.08.2007;53
25.08.2007;53
26.08.2007;52
27.08.2007;52
28.08.2007;52
29.08.2007;52
30.08.2007;52
31.08.2007;52
01.09.2007;52
02.09.2007;52
03.09.2007;56
04.09.2007;58
05.09.2007;58
06.09.2007;58
07.09.2007;58
08.09.2007;57
09.09.2007;56
10.09.2007;56
11.09.2007;55
12.09.2007;55
13.09.2007;55
14.09.2007;55
15.09.2007;55
16.09.2007;55
17.09.2007;55
18.09.2007;55
19.09.2007;61
20.09.2007;64
21.09.2007;66
22.09.2007;67
23.09.2007;66
24.09.2007;65
25.09.2007;65
26.09.2007;64
27.09.2007;64
28.09.2007;63
29.09.2007;63
30.09.2007;63
01.10.2007;64
02.10.2007;65
03.10.2007;66
04.10.2007;66
05.10.2007;64
06.10.2007;64
07.10.2007;65
08.10.2007;66
09.10.2007;68
10.10.2007;71
11.10.2007;73
12.10.2007;78
13.10.2007;90
14.10.2007;91
15.10.2007;90
16.10.2007;89
17.10.2007;88
18.10.2007;87
19.10.2007;86
20.10.2007;85
21.10.2007;84
22.10.2007;84
23.10.2007;83
24.10.2007;83
25.10.2007;82
26.10.2007;82
27.10.2007;81
28.10.2007;81
29.10.2007;80
30.10.2007;80
31.10.2007;80
01.11.2007;80
02.11.2007;82
03.11.2007;83
04.11.2007;80
05.11.2007;78
06.11.2007;80
07.11.2007;78
08.11.2007;77
09.11.2007;77
10.11.2007;78
11.11.2007;79
12.11.2007;78
13.11.2007;77
14.11.2007;76
15.11.2007;75
16.11.2007;75
17.11.2007;75
18.11.2007;75
19.11.2007;76
20.11.2007;78
21.11.2007;79
22.11.2007;78
23.11.2007;78
24.11.2007;78
25.11.2007;78
26.11.2007;79
27.11.2007;79
28.11.2007;80
29.11.2007;79
30.11.2007;79
01.12.2007;78
02.12.2007;77
03.12.2007;78
04.12.2007;79
05.12.2007;82
06.12.2007;85
07.12.2007;94
08.12.2007;99
09.12.2007;100
10.12.2007;100
11.12.2007;99
12.12.2007;97
13.12.2007;96
14.12.2007;94
15.12.2007;93
16.12.2007;92
17.12.2007;92
18.12.2007;92
19.12.2007;91
20.12.2007;90
21.12.2007;89
22.12.2007;88
23.12.2007;88
24.12.2007;87
25.12.2007;86
26.12.2007;86
27.12.2007;85
28.12.2007;85
29.12.2007;85
30.12.2007;85
31.12.2007;85
01.01.2008;84
02.01.2008;83
03.01.2008;81
04.01.2008;100
05.01.2008;120
06.01.2008;117
07.01.2008;101
08.01.2008;91
09.01.2008;83
10.01.2008;79
11.01.2008;78
12.01.2008;77
13.01.2008;78
14.01.2008;77
15.01.2008;76
16.01.2008;76
17.01.2008;75
18.01.2008;76
19.01.2008;76
20.01.2008;83
21.01.2008;85
22.01.2008;86
23.01.2008;85
24.01.2008;83
25.01.2008;84
26.01.2008;85
27.01.2008;87
28.01.2008;85
29.01.2008;84
30.01.2008;86
31.01.2008;91
01.02.2008;91
02.02.2008;90
03.02.2008;90
04.02.2008;90
05.02.2008;92
06.02.2008;93
07.02.2008;94
08.02.2008;95
09.02.2008;95
10.02.2008;96
11.02.2008;97
12.02.2008;97
13.02.2008;97
14.02.2008;95
15.02.2008;94
16.02.2008;93
17.02.2008;93
18.02.2008;93
19.02.2008;92
20.02.2008;91
21.02.2008;91
22.02.2008;91
23.02.2008;93
24.02.2008;93
25.02.2008;98
26.02.2008;101
27.02.2008;100
28.02.2008;103
29.02.2008;100
01.03.2008;100
02.03.2008;100
03.03.2008;99
04.03.2008;98
05.03.2008;97
06.03.2008;96
07.03.2008;96
08.03.2008;95
09.03.2008;93
10.03.2008;93
11.03.2008;100
12.03.2008;106
13.03.2008;104
14.03.2008;104
15.03.2008;103
16.03.2008;101
17.03.2008;99
18.03.2008;97
19.03.2008;97
20.03.2008;96
21.03.2008;95
22.03.2008;94
23.03.2008;94
24.03.2008;94
25.03.2008;94
26.03.2008;92
27.03.2008;95
28.03.2008;93
29.03.2008;93
30.03.2008;95
31.03.2008;99
01.04.2008;104
02.04.2008;104
03.04.2008;103
04.04.2008;103
05.04.2008;103
06.04.2008;104
07.04.2008;103
08.04.2008;104
09.04.2008;104
10.04.2008;103
11.04.2008;104
12.04.2008;101
13.04.2008;100
14.04.2008;101
15.04.2008;104
16.04.2008;103
17.04.2008;101
18.04.2008;99
19.04.2008;96
20.04.2008;95
21.04.2008;94
22.04.2008;93
23.04.2008;92
24.04.2008;91
25.04.2008;91
26.04.2008;90
27.04.2008;89
28.04.2008;89
29.04.2008;88
30.04.2008;87
01.05.2008;87
02.05.2008;86
03.05.2008;85
04.05.2008;85
05.05.2008;85
06.05.2008;84
07.05.2008;83
08.05.2008;83
09.05.2008;82
10.05.2008;82
11.05.2008;81
12.05.2008;80
13.05.2008;79
14.05.2008;78
15.05.2008;77
16.05.2008;77
17.05.2008;76
18.05.2008;78
19.05.2008;79
20.05.2008;77
21.05.2008;76
22.05.2008;75
23.05.2008;74
24.05.2008;73
25.05.2008;72
26.05.2008;71
27.05.2008;71
28.05.2008;70
29.05.2008;70
30.05.2008;70
31.05.2008;66
01.06.2008;64
02.06.2008;64
03.06.2008;72
04.06.2008;70
05.06.2008;68
06.06.2008;67
07.06.2008;64
08.06.2008;63
09.06.2008;64
10.06.2008;62
11.06.2008;60
12.06.2008;60
13.06.2008;61
14.06.2008;63
15.06.2008;64
16.06.2008;65
17.06.2008;65
18.06.2008;78
19.06.2008;86
20.06.2008;80
21.06.2008;82
22.06.2008;82
23.06.2008;88
24.06.2008;103
25.06.2008;113
26.06.2008;110
27.06.2008;104
28.06.2008;100
29.06.2008;97
30.06.2008;95
01.07.2008;92
02.07.2008;90
03.07.2008;88
04.07.2008;87
05.07.2008;85
06.07.2008;84
07.07.2008;84
08.07.2008;84
09.07.2008;83
10.07.2008;82
11.07.2008;82
12.07.2008;81
13.07.2008;80
14.07.2008;79
15.07.2008;79
16.07.2008;78
17.07.2008;78
18.07.2008;78
19.07.2008;77
20.07.2008;76
21.07.2008;75
22.07.2008;75
23.07.2008;75
24.07.2008;74
25.07.2008;73
26.07.2008;72
27.07.2008;71
28.07.2008;71
29.07.2008;70
30.07.2008;69
31.07.2008;69
01.08.2008;69
02.08.2008;68
03.08.2008;70
04.08.2008;72
05.08.2008;75
06.08.2008;77
07.08.2008;75
08.08.2008;74
09.08.2008;73
10.08.2008;72
11.08.2008;71
12.08.2008;71
13.08.2008;84
14.08.2008;86
15.08.2008;83
16.08.2008;80
17.08.2008;79
18.08.2008;78
19.08.2008;77
20.08.2008;76
21.08.2008;75
22.08.2008;74
23.08.2008;74
24.08.2008;74
25.08.2008;74
26.08.2008;79
27.08.2008;82
28.08.2008;86
29.08.2008;99
30.08.2008;102
31.08.2008;102
01.09.2008;99
02.09.2008;97
03.09.2008;96
04.09.2008;97
05.09.2008;97
06.09.2008;96
07.09.2008;97
08.09.2008;96
09.09.2008;96
10.09.2008;99
11.09.2008;100
12.09.2008;99
13.09.2008;99
14.09.2008;99
15.09.2008;97
16.09.2008;96
17.09.2008;95
18.09.2008;94
19.09.2008;93
20.09.2008;93
21.09.2008;92
22.09.2008;91
23.09.2008;90
24.09.2008;89
25.09.2008;89
26.09.2008;88
27.09.2008;87
28.09.2008;87
29.09.2008;87
30.09.2008;86
01.10.2008;85
02.10.2008;85
03.10.2008;86
04.10.2008;85
05.10.2008;84
06.10.2008;83
07.10.2008;83
08.10.2008;81
09.10.2008;81
10.10.2008;81
11.10.2008;81
12.10.2008;81
13.10.2008;81
14.10.2008;81
15.10.2008;82
16.10.2008;82
17.10.2008;84
18.10.2008;85
19.10.2008;84
20.10.2008;88
21.10.2008;88
22.10.2008;88
23.10.2008;85
24.10.2008;84
25.10.2008;83
26.10.2008;83
27.10.2008;86
28.10.2008;90
29.10.2008;93
30.10.2008;95
31.10.2008;102
01.11.2008;108
02.11.2008;106
03.11.2008;104
04.11.2008;103
05.11.2008;102
06.11.2008;100
07.11.2008;98
08.11.2008;96
09.11.2008;96
10.11.2008;96
11.11.2008;96
12.11.2008;97
13.11.2008;95
14.11.2008;94
15.11.2008;93
16.11.2008;97
17.11.2008;104
18.11.2008;103
19.11.2008;100
20.11.2008;100
21.11.2008;100
22.11.2008;98
23.11.2008;98
24.11.2008;97
25.11.2008;94
26.11.2008;91
27.11.2008;91
28.11.2008;101
29.11.2008;119
30.11.2008;126
01.12.2008;128
02.12.2008;130
03.12.2008;132
04.12.2008;133
05.12.2008;131
06.12.2008;128
07.12.2008;126
08.12.2008;122
09.12.2008;118
10.12.2008;116
11.12.2008;114
12.12.2008;112
13.12.2008;111
14.12.2008;111
15.12.2008;108
16.12.2008;106
17.12.2008;104
18.12.2008;103
19.12.2008;102
20.12.2008;102
21.12.2008;101
22.12.2008;101
23.12.2008;102
24.12.2008;101
25.12.2008;99
26.12.2008;98
27.12.2008;98
28.12.2008;97
29.12.2008;96
30.12.2008;95
31.12.2008;95
01.01.2009;94
02.01.2009;92
03.01.2009;94
04.01.2009;90
05.01.2009;92
06.01.2009;106
07.01.2009;88
08.01.2009;93
09.01.2009;98
10.01.2009;87
11.01.2009;86
12.01.2009;88
13.01.2009;98
14.01.2009;103
15.01.2009;101
16.01.2009;97
17.01.2009;94
18.01.2009;92
19.01.2009;92
20.01.2009;91
21.01.2009;90
22.01.2009;89
23.01.2009;89
24.01.2009;88
25.01.2009;88
26.01.2009;88
27.01.2009;87
28.01.2009;87
29.01.2009;86
30.01.2009;85
31.01.2009;84
01.02.2009;93
02.02.2009;109
03.02.2009;108
04.02.2009;121
05.02.2009;94
06.02.2009;80
07.02.2009;80
08.02.2009;80
09.02.2009;81
10.02.2009;80
11.02.2009;79
12.02.2009;79
13.02.2009;79
14.02.2009;79
15.02.2009;78
16.02.2009;78
17.02.2009;77
18.02.2009;76
19.02.2009;76
20.02.2009;75
21.02.2009;85
22.02.2009;105
23.02.2009;97
24.02.2009;74
25.02.2009;74
26.02.2009;74
27.02.2009;74
28.02.2009;73
01.03.2009;72
02.03.2009;71
03.03.2009;71
04.03.2009;71
05.03.2009;71
06.03.2009;71
07.03.2009;71
08.03.2009;70
09.03.2009;70
10.03.2009;70
11.03.2009;70
12.03.2009;70
13.03.2009;69
14.03.2009;69
15.03.2009;69
16.03.2009;69
17.03.2009;69
18.03.2009;70
19.03.2009;69
20.03.2009;68
21.03.2009;69
22.03.2009;69
23.03.2009;68
24.03.2009;67
25.03.2009;67
26.03.2009;67
27.03.2009;66
28.03.2009;67
29.03.2009;67
30.03.2009;68
31.03.2009;70
01.04.2009;83
02.04.2009;95
03.04.2009;101
04.04.2009;117
05.04.2009;116
06.04.2009;118
07.04.2009;117
08.04.2009;113
09.04.2009;110
10.04.2009;108
11.04.2009;107
12.04.2009;107
13.04.2009;105
14.04.2009;103
15.04.2009;102
16.04.2009;100
17.04.2009;99
18.04.2009;97
19.04.2009;95
20.04.2009;94
21.04.2009;92
22.04.2009;91
23.04.2009;91
24.04.2009;91
25.04.2009;90
26.04.2009;90
27.04.2009;89
28.04.2009;89
29.04.2009;88
30.04.2009;87
01.05.2009;85
02.05.2009;85
03.05.2009;84
04.05.2009;84
05.05.2009;83
06.05.2009;82
07.05.2009;82
08.05.2009;81
09.05.2009;81
10.05.2009;80
11.05.2009;80
12.05.2009;79
13.05.2009;78
14.05.2009;78
15.05.2009;77
16.05.2009;76
17.05.2009;76
18.05.2009;75
19.05.2009;75
20.05.2009;75
21.05.2009;76
22.05.2009;79
23.05.2009;77
24.05.2009;76
25.05.2009;76
26.05.2009;75
27.05.2009;74
28.05.2009;73
29.05.2009;72
30.05.2009;72
31.05.2009;72
01.06.2009;71
02.06.2009;70
03.06.2009;69
04.06.2009;70
05.06.2009;76
06.06.2009;75
07.06.2009;72
08.06.2009;70
09.06.2009;69
10.06.2009;69
11.06.2009;71
12.06.2009;70
13.06.2009;70
14.06.2009;79
15.06.2009;77
16.06.2009;74
17.06.2009;72
18.06.2009;71
19.06.2009;70
20.06.2009;71
21.06.2009;72
22.06.2009;71
23.06.2009;69
24.06.2009;69
25.06.2009;68
26.06.2009;68
27.06.2009;67
28.06.2009;67
29.06.2009;66
30.06.2009;66
01.07.2009;65
02.07.2009;65
03.07.2009;65
04.07.2009;65
05.07.2009;65
06.07.2009;64
07.07.2009;64
08.07.2009;64
09.07.2009;64
10.07.2009;64
11.07.2009;63
12.07.2009;64
13.07.2009;65
14.07.2009;67
15.07.2009;65
16.07.2009;64
17.07.2009;68
18.07.2009;67
19.07.2009;65
20.07.2009;66
21.07.2009;65
22.07.2009;64
23.07.2009;64
24.07.2009;64
25.07.2009;66
26.07.2009;67
27.07.2009;67
28.07.2009;66
29.07.2009;66
30.07.2009;65
31.07.2009;65
01.08.2009;65
02.08.2009;66
03.08.2009;68
04.08.2009;68
05.08.2009;67
06.08.2009;66
07.08.2009;65
08.08.2009;64
09.08.2009;64
10.08.2009;63
11.08.2009;62
12.08.2009;62
13.08.2009;63
14.08.2009;63
15.08.2009;63
16.08.2009;65
17.08.2009;65
18.08.2009;65
19.08.2009;67
20.08.2009;67
21.08.2009;66
22.08.2009;65
23.08.2009;64
24.08.2009;63
25.08.2009;63
26.08.2009;62
27.08.2009;62
28.08.2009;62
29.08.2009;62
30.08.2009;62
31.08.2009;63
01.09.2009;63
02.09.2009;63
03.09.2009;62
04.09.2009;62
05.09.2009;62
06.09.2009;63
07.09.2009;64
08.09.2009;65
09.09.2009;65
10.09.2009;64
11.09.2009;63
12.09.2009;63
13.09.2009;63
14.09.2009;62
15.09.2009;62
16.09.2009;62
17.09.2009;62
18.09.2009;62
19.09.2009;62
20.09.2009;62
21.09.2009;62
22.09.2009;61
23.09.2009;61
24.09.2009;61
25.09.2009;61
26.09.2009;61
27.09.2009;62
28.09.2009;63
29.09.2009;65
30.09.2009;67
01.10.2009;71
02.10.2009;74
03.10.2009;73
04.10.2009;75
05.10.2009;83
06.10.2009;88
07.10.2009;86
08.10.2009;84
09.10.2009;83
10.10.2009;81
11.10.2009;80
12.10.2009;80
13.10.2009;89
14.10.2009;93
15.10.2009;92
16.10.2009;92
17.10.2009;92
18.10.2009;100
19.10.2009;106
20.10.2009;111
21.10.2009;111
22.10.2009;109
23.10.2009;109
24.10.2009;108
25.10.2009;106
26.10.2009;105
27.10.2009;104
28.10.2009;105
29.10.2009;109
30.10.2009;108
31.10.2009;105
01.11.2009;103
02.11.2009;101
03.11.2009;99
04.11.2009;97
05.11.2009;96
06.11.2009;95
07.11.2009;94
08.11.2009;94
09.11.2009;94
10.11.2009;94
11.11.2009;95
12.11.2009;95
13.11.2009;94
14.11.2009;93
15.11.2009;92
16.11.2009;94
17.11.2009;96
18.11.2009;99
19.11.2009;104
20.11.2009;103
21.11.2009;105
22.11.2009;107
23.11.2009;106
24.11.2009;106
25.11.2009;105
26.11.2009;105
27.11.2009;105
28.11.2009;105
29.11.2009;105
30.11.2009;103
01.12.2009;102
02.12.2009;103
03.12.2009;103
04.12.2009;103
05.12.2009;103
06.12.2009;101
07.12.2009;100
08.12.2009;99
09.12.2009;98
10.12.2009;97
11.12.2009;96
12.12.2009;95
13.12.2009;94
14.12.2009;92
15.12.2009;105
16.12.2009;128
17.12.2009;151
18.12.2009;154
19.12.2009;149
20.12.2009;132
21.12.2009;113
22.12.2009;100
23.12.2009;92
24.12.2009;88
25.12.2009;85
26.12.2009;84
27.12.2009;84
28.12.2009;84
29.12.2009;83
30.12.2009;83
31.12.2009;82
01.01.2010;81
02.01.2010;85
03.01.2010;89
04.01.2010;93
05.01.2010;96
06.01.2010;102
07.01.2010;105
08.01.2010;110
09.01.2010;102
10.01.2010;84
11.01.2010;75
12.01.2010;78
13.01.2010;77
14.01.2010;77
15.01.2010;76
16.01.2010;75
17.01.2010;73
18.01.2010;70
19.01.2010;75
20.01.2010;73
21.01.2010;72
22.01.2010;72
23.01.2010;71
24.01.2010;72
25.01.2010;73
26.01.2010;73
27.01.2010;72
28.01.2010;72
29.01.2010;73
30.01.2010;73
31.01.2010;72
01.02.2010;71
02.02.2010;71
03.02.2010;70
04.02.2010;69
05.02.2010;69
06.02.2010;69
07.02.2010;68
08.02.2010;68
09.02.2010;67
10.02.2010;66
11.02.2010;69
12.02.2010;67
13.02.2010;67
14.02.2010;67
15.02.2010;66
16.02.2010;66
17.02.2010;65
18.02.2010;65
19.02.2010;64
20.02.2010;66
21.02.2010;67
22.02.2010;71
23.02.2010;69
24.02.2010;70
25.02.2010;69
26.02.2010;69
27.02.2010;75
28.02.2010;74
01.03.2010;67
02.03.2010;66
03.03.2010;65
04.03.2010;64
05.03.2010;64
06.03.2010;67
07.03.2010;65
08.03.2010;62
09.03.2010;61
10.03.2010;61
11.03.2010;61
12.03.2010;62
13.03.2010;70
14.03.2010;62
15.03.2010;61
16.03.2010;61
17.03.2010;61
18.03.2010;61
19.03.2010;62
20.03.2010;64
21.03.2010;65
22.03.2010;64
23.03.2010;64
24.03.2010;65
25.03.2010;64
26.03.2010;64
27.03.2010;66
28.03.2010;73
29.03.2010;83
30.03.2010;93
31.03.2010;102
01.04.2010;114
02.04.2010;135
03.04.2010;144
04.04.2010;148
05.04.2010;153
06.04.2010;155
07.04.2010;156
08.04.2010;155
09.04.2010;152
10.04.2010;152
11.04.2010;151
12.04.2010;149
13.04.2010;146
14.04.2010;142
15.04.2010;137
16.04.2010;133
17.04.2010;130
18.04.2010;127
19.04.2010;123
20.04.2010;120
21.04.2010;117
22.04.2010;119
23.04.2010;120
24.04.2010;117
25.04.2010;114
26.04.2010;111
27.04.2010;109
28.04.2010;108
29.04.2010;106
30.04.2010;106
01.05.2010;106
02.05.2010;104
03.05.2010;103
04.05.2010;104
05.05.2010;106
06.05.2010;103
07.05.2010;101
08.05.2010;102
09.05.2010;104
10.05.2010;102
11.05.2010;100
12.05.2010;100
13.05.2010;99
14.05.2010;98
15.05.2010;96
16.05.2010;96
17.05.2010;97
18.05.2010;95
19.05.2010;93
20.05.2010;92
21.05.2010;90
22.05.2010;89
23.05.2010;88
24.05.2010;88
25.05.2010;88
26.05.2010;86
27.05.2010;87
28.05.2010;86
29.05.2010;85
30.05.2010;85
31.05.2010;84
01.06.2010;83
02.06.2010;83
03.06.2010;82
04.06.2010;81
05.06.2010;80
06.06.2010;79
07.06.2010;79
08.06.2010;79
09.06.2010;79
10.06.2010;78
11.06.2010;78
12.06.2010;82
13.06.2010;81
14.06.2010;79
15.06.2010;78
16.06.2010;77
17.06.2010;76
18.06.2010;75
19.06.2010;74
20.06.2010;74
21.06.2010;76
22.06.2010;79
23.06.2010;78
24.06.2010;76
25.06.2010;74
26.06.2010;73
27.06.2010;72
28.06.2010;71
29.06.2010;71
30.06.2010;71
01.07.2010;70
02.07.2010;70
03.07.2010;69
04.07.2010;69
05.07.2010;69
06.07.2010;68
07.07.2010;68
08.07.2010;72
09.07.2010;71
10.07.2010;69
11.07.2010;68
12.07.2010;68
13.07.2010;67
14.07.2010;67
15.07.2010;67
16.07.2010;66
17.07.2010;66
18.07.2010;65
19.07.2010;66
20.07.2010;65
21.07.2010;65
22.07.2010;64
23.07.2010;64
24.07.2010;64
25.07.2010;64
26.07.2010;64
27.07.2010;64
28.07.2010;64
29.07.2010;63
30.07.2010;62
31.07.2010;62
01.08.2010;61
02.08.2010;61
03.08.2010;61
04.08.2010;61
05.08.2010;60
06.08.2010;60
07.08.2010;60
08.08.2010;60
09.08.2010;60
10.08.2010;60
11.08.2010;60
12.08.2010;59
13.08.2010;59
14.08.2010;58
15.08.2010;58
16.08.2010;58
17.08.2010;57
18.08.2010;57
19.08.2010;57
20.08.2010;56
21.08.2010;56
22.08.2010;56
23.08.2010;56
24.08.2010;56
25.08.2010;56
26.08.2010;56
27.08.2010;56
28.08.2010;56
29.08.2010;57
30.08.2010;57
31.08.2010;57
01.09.2010;56
02.09.2010;55
03.09.2010;57
04.09.2010;59
05.09.2010;59
06.09.2010;59
07.09.2010;58
08.09.2010;58
09.09.2010;57
10.09.2010;57
11.09.2010;56
12.09.2010;56
13.09.2010;57
14.09.2010;57
15.09.2010;56
16.09.2010;56
17.09.2010;56
18.09.2010;56
19.09.2010;57
20.09.2010;57
21.09.2010;57
22.09.2010;58
23.09.2010;57
24.09.2010;57
25.09.2010;57
26.09.2010;57
27.09.2010;56
28.09.2010;56
29.09.2010;56
30.09.2010;56
01.10.2010;55
02.10.2010;55
03.10.2010;55
04.10.2010;55
05.10.2010;55
06.10.2010;55
07.10.2010;55
08.10.2010;55
09.10.2010;55
10.10.2010;56
11.10.2010;56
12.10.2010;56
13.10.2010;56
14.10.2010;56
15.10.2010;57
16.10.2010;59
17.10.2010;59
18.10.2010;59
19.10.2010;59
20.10.2010;60
21.10.2010;61
22.10.2010;63
23.10.2010;63
24.10.2010;64
25.10.2010;68
26.10.2010;69
27.10.2010;69
28.10.2010;68
29.10.2010;68
30.10.2010;68
31.10.2010;67
01.11.2010;67
02.11.2010;66
03.11.2010;66
04.11.2010;66
05.11.2010;67
06.11.2010;66
07.11.2010;65
08.11.2010;65
09.11.2010;64
10.11.2010;66
11.11.2010;69
12.11.2010;69
13.11.2010;70
14.11.2010;71
15.11.2010;72
16.11.2010;72
17.11.2010;72
18.11.2010;72
19.11.2010;73
20.11.2010;78
21.11.2010;83
22.11.2010;83
23.11.2010;82
24.11.2010;81
25.11.2010;80
26.11.2010;80
27.11.2010;79
28.11.2010;79
29.11.2010;78
30.11.2010;87
01.12.2010;94
02.12.2010;94
03.12.2010;91
04.12.2010;94
05.12.2010;84
06.12.2010;77
07.12.2010;77
08.12.2010;77
09.12.2010;75
10.12.2010;68
11.12.2010;82
12.12.2010;83
13.12.2010;85
14.12.2010;81
15.12.2010;77
16.12.2010;76
17.12.2010;76
18.12.2010;75
19.12.2010;73
20.12.2010;74
21.12.2010;74
22.12.2010;74
23.12.2010;73
24.12.2010;73
25.12.2010;70
26.12.2010;72
27.12.2010;76
28.12.2010;74
29.12.2010;74
30.12.2010;73
31.12.2010;73
01.01.2011;73
02.01.2011;72
03.01.2011;72
04.01.2011;72
05.01.2011;72
06.01.2011;72
07.01.2011;68
08.01.2011;77
09.01.2011;73
10.01.2011;76
11.01.2011;77
12.01.2011;75
13.01.2011;75
14.01.2011;75
15.01.2011;74
16.01.2011;90
17.01.2011;98
18.01.2011;84
19.01.2011;76
20.01.2011;75
21.01.2011;75
22.01.2011;75
23.01.2011;75
24.01.2011;75
25.01.2011;75
26.01.2011;75
27.01.2011;86
28.01.2011;92
29.01.2011;81
30.01.2011;73
31.01.2011;88
01.02.2011;82
02.02.2011;74
03.02.2011;74
04.02.2011;75
05.02.2011;75
06.02.2011;75
07.02.2011;74
08.02.2011;75
09.02.2011;74
10.02.2011;77
11.02.2011;91
12.02.2011;90
13.02.2011;97
14.02.2011;97
15.02.2011;90
16.02.2011;80
17.02.2011;75
18.02.2011;73
19.02.2011;71
20.02.2011;71
21.02.2011;72
22.02.2011;72
23.02.2011;73
24.02.2011;74
25.02.2011;75
26.02.2011;75
27.02.2011;75
28.02.2011;74
01.03.2011;73
02.03.2011;72
03.03.2011;71
04.03.2011;71
05.03.2011;71
06.03.2011;71
07.03.2011;69
08.03.2011;70
09.03.2011;69
10.03.2011;69
11.03.2011;69
12.03.2011;70
13.03.2011;70
14.03.2011;69
15.03.2011;68
16.03.2011;67
17.03.2011;69
18.03.2011;67
19.03.2011;67
20.03.2011;67
21.03.2011;67
22.03.2011;67
23.03.2011;69
24.03.2011;68
25.03.2011;67
26.03.2011;71
27.03.2011;72
28.03.2011;68
29.03.2011;69
30.03.2011;67
31.03.2011;66
01.04.2011;66
02.04.2011;67
03.04.2011;70
04.04.2011;83
05.04.2011;101
06.04.2011;117
07.04.2011;131
08.04.2011;143
09.04.2011;148
10.04.2011;153
11.04.2011;156
12.04.2011;156
13.04.2011;156
14.04.2011;154
15.04.2011;150
16.04.2011;149
17.04.2011;150
18.04.2011;150
19.04.2011;146
20.04.2011;141
21.04.2011;136
22.04.2011;133
23.04.2011;130
24.04.2011;127
25.04.2011;124
26.04.2011;121
27.04.2011;119
28.04.2011;116
29.04.2011;114
30.04.2011;112
01.05.2011;110
02.05.2011;109